EW8780 Weather Reports


Display with metric or nautical units.
time (UTC)temp
F
wind
direction
speed
MPH
gust
MPH
rain 1hr
in
rain 24hr
in
rain mn
in
humidity
%
barometer
mb
20260504180039 55 210 2.0 4.0 0.01 0.17 0.02 96 1012.6
20260504174539 55 177 2.0 5.0 0.00 0.16 0.01 97 1012.6
20260504173037 56 211 1.0 5.0 0.00 0.16 0.01 97 1012.4
20260504171545 55 180 0.0 1.0 0.00 0.16 0.01 97 1012.3
20260504100103 51 155 0.0 0.0 0.00 0.16 0.01 96 1011.0
20260504090106 51 155 0.0 0.0 0.00 0.16 0.01 96 1011.1
20260504081550 53 155 0.0 1.0 0.01 0.16 0.01 96 1012.1
20260504044526 53 300 0.0 0.0 0.00 0.14 0.14 95 1011.0
20260504043037 53 301 0.0 2.0 0.00 0.14 0.14 95 1010.5
20260504041524 53 301 0.0 1.0 0.00 0.14 0.14 95 1010.4
20260504040025 53 300 0.0 1.0 0.00 0.14 0.14 95 1010.0
20260504034524 53 300 0.0 1.0 0.00 0.14 0.14 95 1009.8
20260504033026 53 300 0.0 1.0 0.00 0.14 0.14 95 1009.9
20260504031522 53 300 0.0 0.0 0.01 0.14 0.14 95 1009.6
20260504030021 53 300 0.0 0.0 0.02 0.14 0.14 95 1009.3
20260504024521 53 300 0.0 1.0 0.04 0.14 0.14 94 1009.2
20260504023026 53 300 0.0 2.0 0.07 0.14 0.14 94 1009.3
20260504021519 53 300 0.0 1.0 0.10 0.13 0.13 94 1009.5
20260504020025 53 300 0.0 1.0 0.12 0.12 0.12 94 1009.8
20260504014524 53 300 0.0 0.0 0.10 0.10 0.10 94 1009.7
20260504013021 53 300 0.0 2.0 0.07 0.07 0.07 93 1010.3
20260504011521 54 237 0.0 1.0 0.02 0.02 0.02 93 1009.9
20260504010014 54 237 0.0 3.0 0.00 0.00 0.00 93 1009.7
20260504004514 54 215 0.0 2.0 0.00 0.00 0.00 93 1009.7
20260504003013 54 215 0.0 1.0 0.00 0.00 0.00 93 1009.2
20260504001512 54 215 1.0 3.0 0.00 0.00 0.00 93 1009.2
20260504000011 54 183 0.0 3.0 0.00 0.00 0.00 93 1009.2
20260503234511 54 211 2.0 4.0 0.00 0.00 0.00 92 1009.3
20260503233010 54 232 0.0 4.0 0.00 0.00 0.00 92 1009.1
20260503231514 54 239 1.0 4.0 0.00 0.00 0.00 92 1009.3
20260503230008 54 219 2.0 5.0 0.00 0.00 0.00 91 1009.3
20260503224512 55 228 3.0 5.0 0.00 0.00 0.00 91 1009.3
20260503223008 55 227 2.0 8.0 0.00 0.00 0.00 90 1009.2
20260503221504 55 235 2.0 5.0 0.00 0.00 0.00 91 1009.0
20260503220003 55 223 2.0 6.0 0.00 0.00 0.00 91 1008.8
20260503214502 55 204 2.0 5.0 0.00 0.00 0.00 91 1008.7
20260503213002 55 215 2.0 5.0 0.00 0.00 0.00 91 1008.7
20260503211501 55 222 2.0 6.0 0.00 0.00 0.00 91 1008.8
20260503210002 55 227 2.0 5.0 0.00 0.00 0.00 90 1008.7
20260503204605 55 227 2.0 5.0 0.00 0.00 0.00 90 1008.7
20260503203101 55 227 3.0 7.0 0.00 0.00 0.00 90 1008.6
20260503201559 55 225 3.0 5.0 0.00 0.00 0.00 90 1008.5
20260503194602 55 216 1.0 5.0 0.00 0.00 0.00 89 1008.5
20260503193058 55 207 3.0 6.0 0.00 0.00 0.00 90 1008.6
20260503191557 56 185 1.0 6.0 0.00 0.00 0.00 91 1008.7
20260503190055 55 219 2.0 6.0 0.00 0.00 0.00 92 1008.8
20260503184604 55 214 2.0 6.0 0.00 0.00 0.00 92 1008.9
20260503183055 55 215 2.0 5.0 0.00 0.00 0.00 93 1008.9
20260503181550 54 213 2.0 5.0 0.00 0.00 0.00 93 1008.8